Amateur Radio Satellites - All Passes

Search period start: 19 May 2013 04:24
Search period end: 20 May 2013 04:24
Location: Ladysmith, 45.4630°N, 91.1040°W

Satellite Date Start Highest point End Downlink Frequencies (MHz)
Time Altitude Azimuth
AO-7 19 May 04:24:52 04:29:17 15° 86° (E) 04:33:41 29.400 - 29.500 MHz
Uribyol 2 19 May 04:56:35 04:59:37 16° 303° (WNW) 05:02:38 436.500 FM
Oscar 19 19 May 05:09:40 05:10:58 11° 306° (NW) 05:12:16 437.125 CW, 437.150 USB
TMSAT-1 19 May 05:26:35 05:31:55 76° 286° (WNW) 05:37:12 436.925 FM
Uosat F 19 May 05:31:48 05:36:25 38° 293° (WNW) 05:41:01 435.120 FM
ISS 19 May 05:32:25 05:35:44 84° 329° (NNW) 05:39:07 145.800 FM
MaSat-1 19 May 05:33:52 05:37:42 16° 318° (NW) 05:41:07 437.345 MHz
STRAND 1 19 May 05:41:54 05:46:23 32° 65° (ENE) 05:50:53 ?
AO-Echo 19 May 05:44:22 05:46:39 14° 301° (WNW) 05:48:57 ?
KITSAT 1 19 May 05:45:33 05:50:54 18° 12° (NNE) 05:56:15 435.175 FM
Gurwin Techsat 1B 19 May 05:46:18 05:51:09 37° 293° (WNW) 05:55:58 435.225 FM
AO-7 19 May 06:15:07 06:23:31 73° 106° (ESE) 06:31:52 29.400 - 29.500 MHz
Saudisat 1A 19 May 06:55:43 07:00:02 43° 119° (ESE) 07:04:24 436.775 MHz
TMSAT-1 19 May 07:08:49 07:10:58 13° 305° (NW) 07:13:06 436.925 FM
ISS 19 May 07:09:47 07:12:48 30° 351° (N) 07:15:49 145.800 FM
STRAND 1 19 May 07:20:54 07:25:32 35° 263° (W) 07:30:12 ?
Sapphire 19 May 07:26:32 07:29:13 14° 103° (ESE) 07:31:54 437.095 MHz 1200 baud AX-25 AFSK
KITSAT 1 19 May 07:41:27 07:48:59 39° 40° (NE) 07:56:28 435.175 FM
JAS-1B 19 May 07:46:55 07:51:14 19° 88° (E) 07:55:16 435.800 - 435.900 CW/SSB
SO-67 19 May 07:59:13 08:01:36 17° 92° (E) 08:03:59 435.3500 MHz FM
Hamsat 19 May 08:00:20 08:04:37 56° 100° (E) 08:08:55 145.90 MHz
AO-7 19 May 08:08:41 08:15:39 31° 307° (NW) 08:22:38 29.400 - 29.500 MHz
PCSat 19 May 08:33:51 08:39:06 54° 116° (ESE) 08:44:23 145.825 MHz
Saudisat 1A 19 May 08:35:49 08:39:53 30° 318° (NW) 08:43:58 436.775 MHz
ISS 19 May 08:47:04 08:50:08 31° 11° (N) 08:53:12 145.800 FM
HO-68 19 May 08:48:40 08:49:23 10° 83° (E) 08:50:07 435.675 MHz FM
Sapphire 19 May 09:06:26 09:11:51 90° 302° (WNW) 09:17:18 437.095 MHz 1200 baud AX-25 AFSK
SO-50 19 May 09:16:38 09:20:17 22° 113° (ESE) 09:23:53 436.795 FM
SO-67 19 May 09:31:55 09:35:12 34° 289° (WNW) 09:38:27 435.3500 MHz FM
JAS-2 19 May 09:34:02 09:38:53 19° 85° (E) 09:43:21 435.800 - 435.900 CW/SSB, 435.910 FM
JAS-1B 19 May 09:36:23 09:42:43 64° 290° (WNW) 09:48:22 435.800 - 435.900 CW/SSB
KITSAT 1 19 May 09:36:52 09:44:53 65° 243° (WSW) 09:52:53 435.175 FM
Hamsat 19 May 09:37:33 09:40:17 17° 297° (WNW) 09:43:02 145.90 MHz
Oscar 11 19 May 09:49:45 09:52:03 14° 90° (E) 09:54:22 145.825 FM, Beacon 2401.500 USB
PCSat 19 May 10:18:07 10:22:49 29° 316° (NW) 10:27:34 145.825 MHz
ISS 19 May 10:23:44 10:27:07 83° 210° (SSW) 10:30:30 145.800 FM
HO-68 19 May 10:31:25 10:38:31 62° 103° (ESE) 10:45:35 435.675 MHz FM
OPAL 19 May 10:43:31 10:47:32 24° 95° (E) 10:51:29 ?
MaSat-1 19 May 10:51:12 10:52:22 11° 36° (NE) 10:53:28 437.345 MHz
Sapphire 19 May 10:52:06 10:56:03 20° 322° (NW) 11:00:01 437.095 MHz 1200 baud AX-25 AFSK
SO-50 19 May 10:55:52 11:00:35 56° 310° (NW) 11:05:14 436.795 FM
JAS-2 19 May 11:17:38 11:24:56 82° 287° (WNW) 11:31:19 435.800 - 435.900 CW/SSB, 435.910 FM
Oscar 11 19 May 11:24:23 11:28:42 61° 287° (WNW) 11:33:00 145.825 FM, Beacon 2401.500 USB
JAS-1B 19 May 11:29:46 11:31:53 12° 314° (NW) 11:33:55 435.800 - 435.900 CW/SSB
KITSAT 1 19 May 11:35:29 11:38:42 13° 263° (W) 11:41:56 435.175 FM
Oscar 10/S400 19 May 12:00:25 13:14:15 13° 282° (WNW) 14:59:15 145.825 - 145.975 CW/USB, Beacon 145.810 USB
ISS 19 May 12:01:41 12:03:23 13° 227° (SW) 12:05:04 145.800 FM
Oscar 16 19 May 12:10:42 12:12:38 12° 55° (NE) 12:14:34 437.025 USB, Beacon 2401.1428
ITAMSAT 1 19 May 12:19:42 12:20:32 10° 53° (NE) 12:21:22 435.822 SSB
HO-68 19 May 12:19:45 12:25:48 31° 302° (WNW) 12:31:51 435.675 MHz FM
OPAL 19 May 12:21:50 12:26:40 47° 293° (WNW) 12:31:25 ?
MaSat-1 19 May 12:31:41 12:35:20 73° 244° (WSW) 12:38:14 437.345 MHz
SO-50 19 May 12:39:43 12:42:13 14° 332° (NNW) 12:44:42 436.795 FM
UOSAT-12 19 May 12:39:59 12:44:14 43° 119° (ESE) 12:48:34 437.025 FM, 437.400 FM
Uribyol 2 19 May 12:57:56 13:01:56 23° 62° (ENE) 13:05:57 436.500 FM
JAS-2 19 May 13:04:03 13:08:44 19° 309° (NW) 13:13:08 435.800 - 435.900 CW/SSB, 435.910 FM
Oscar 19 19 May 13:08:07 13:12:37 31° 65° (ENE) 13:17:09 437.125 CW, 437.150 USB
Saudisat 1A 19 May 13:42:14 13:44:56 15° 30° (NNE) 13:47:37 436.775 MHz
AO-Echo 19 May 13:42:23 13:45:36 18° 61° (ENE) 13:48:47 ?
Oscar 16 19 May 13:45:56 13:51:07 75° 73° (ENE) 13:56:20 437.025 USB, Beacon 2401.1428
AO-27 19 May 13:46:25 13:51:28 57° 71° (ENE) 13:56:33 436.795 MHz FM
ITAMSAT 1 19 May 13:53:56 13:59:03 65° 72° (ENE) 14:04:12 435.822 SSB
Gurwin Techsat 1B 19 May 13:55:16 13:55:54 10° 53° (NE) 13:56:31 435.225 FM
UOSAT-12 19 May 14:20:35 14:24:34 29° 318° (NW) 14:28:35 437.025 FM, 437.400 FM
Uribyol 2 19 May 14:36:02 14:41:05 53° 260° (W) 14:46:11 436.500 FM
Oscar 19 19 May 14:47:03 14:51:52 38° 263° (W) 14:56:44 437.125 CW, 437.150 USB
Uosat F 19 May 15:08:36 15:13:25 50° 70° (ENE) 15:18:16 435.120 FM
TMSAT-1 19 May 15:10:50 15:15:23 30° 65° (ENE) 15:19:57 436.925 FM
AO-Echo 19 May 15:19:08 15:23:59 62° 259° (WSW) 15:28:44 ?
Saudisat 1A 19 May 15:20:57 15:25:31 67° 52° (NE) 15:29:59 436.775 MHz
AO-7 19 May 15:25:44 15:32:34 30° 53° (NE) 15:39:26 29.400 - 29.500 MHz
AO-27 19 May 15:27:37 15:31:22 20° 268° (W) 15:35:09 436.795 MHz FM
Oscar 16 19 May 15:28:05 15:31:04 15° 271° (W) 15:34:03 437.025 USB, Beacon 2401.1428
Gurwin Techsat 1B 19 May 15:29:36 15:34:50 62° 72° (ENE) 15:40:05 435.225 FM
ITAMSAT 1 19 May 15:35:38 15:39:02 18° 270° (W) 15:42:28 435.822 SSB
PCSat 19 May 15:37:07 15:40:36 17° 34° (NE) 15:44:03 145.825 MHz
SO-50 19 May 16:06:54 16:08:01 11° 22° (NNE) 16:09:08 436.795 FM
RS-15 19 May 16:09:29 16:19:21 31° 104° (ESE) 16:28:53 29.354 - 29.394 USB, Beacon 29.352 USB
Sapphire 19 May 16:09:31 16:13:54 24° 41° (NE) 16:18:16 437.095 MHz 1200 baud AX-25 AFSK
Uosat F 19 May 16:48:43 16:52:31 22° 267° (W) 16:56:20 435.120 FM
TMSAT-1 19 May 16:50:14 16:55:11 40° 263° (W) 17:00:11 436.925 FM
Saudisat 1A 19 May 17:01:54 17:04:42 16° 250° (WSW) 17:07:28 436.775 MHz
Gurwin Techsat 1B 19 May 17:11:33 17:15:15 19° 270° (W) 17:18:58 435.225 FM
AO-7 19 May 17:16:23 17:24:40 75° 254° (WSW) 17:33:02 29.400 - 29.500 MHz
PCSat 19 May 17:19:36 17:25:03 70° 56° (NE) 17:30:27 145.825 MHz
SO-50 19 May 17:45:42 17:49:59 37° 45° (NE) 17:54:11 436.795 FM
Sapphire 19 May 17:52:27 17:57:53 72° 241° (WSW) 18:03:16 437.095 MHz 1200 baud AX-25 AFSK
RS-15 19 May 18:18:35 18:30:39 82° 307° (NW) 18:42:13 29.354 - 29.394 USB, Beacon 29.352 USB
JAS-1B 19 May 18:31:50 18:39:31 33° 61° (ENE) 18:46:17 435.800 - 435.900 CW/SSB
SO-67 19 May 18:39:48 18:40:02 10° 62° (ENE) 18:40:16 435.3500 MHz FM
Hamsat 19 May 18:56:36 19:00:41 53° 73° (ENE) 19:04:49 145.90 MHz
PCSat 19 May 19:04:11 19:07:55 19° 254° (WSW) 19:11:38 145.825 MHz
AO-7 19 May 19:14:20 19:18:52 16° 274° (W) 19:23:26 29.400 - 29.500 MHz
HO-68 19 May 19:19:25 19:22:40 14° 45° (NE) 19:25:56 435.675 MHz FM
SO-50 19 May 19:26:31 19:30:31 31° 244° (WSW) 19:34:27 436.795 FM
UOSAT-12 19 May 19:28:14 19:31:03 16° 31° (NNE) 19:33:53 437.025 FM, 437.400 FM
STRAND 1 19 May 19:28:42 19:33:50 67° 102° (ESE) 19:38:57 ?
Sapphire 19 May 19:39:52 19:40:19 10° 259° (W) 19:40:45 437.095 MHz 1200 baud AX-25 AFSK
JAS-2 19 May 19:49:14 19:53:34 16° 49° (NE) 19:57:54 435.800 - 435.900 CW/SSB, 435.910 FM
SO-67 19 May 20:09:26 20:12:59 67° 259° (W) 20:16:33 435.3500 MHz FM
JAS-1B 19 May 20:20:15 20:29:38 70° 257° (WSW) 20:37:42 435.800 - 435.900 CW/SSB
RS-15 19 May 20:34:24 20:44:59 36° 335° (NNW) 20:55:10 29.354 - 29.394 USB, Beacon 29.352 USB
Hamsat 19 May 20:34:38 20:37:06 15° 270° (W) 20:39:35 145.90 MHz
Oscar 11 19 May 20:47:35 20:50:13 16° 62° (ENE) 20:52:52 145.825 FM, Beacon 2401.500 USB
HO-68 19 May 21:01:59 21:08:55 58° 66° (ENE) 21:15:54 435.675 MHz FM
UOSAT-12 19 May 21:07:27 21:12:03 71° 52° (NE) 21:16:39 437.025 FM, 437.400 FM
STRAND 1 19 May 21:09:02 21:12:32 19° 300° (WNW) 21:16:03 ?
JAS-2 19 May 21:29:33 21:37:05 62° 69° (ENE) 21:44:48 435.800 - 435.900 CW/SSB, 435.910 FM
OPAL 19 May 22:00:07 22:05:11 56° 68° (ENE) 22:10:15 ?
JAS-1B 19 May 22:16:17 22:21:11 15° 274° (W) 22:25:49 435.800 - 435.900 CW/SSB
KITSAT 1 19 May 22:17:05 22:20:48 14° 98° (E) 22:24:31 435.175 FM
Oscar 11 19 May 22:21:45 22:26:00 58° 259° (W) 22:30:18 145.825 FM, Beacon 2401.500 USB
UOSAT-12 19 May 22:48:57 22:51:41 16° 250° (WSW) 22:54:25 437.025 FM, 437.400 FM
HO-68 19 May 22:50:52 22:56:59 30° 265° (W) 23:03:09 435.675 MHz FM
RS-15 19 May 22:52:03 23:01:41 29° 9° (N) 23:10:59 29.354 - 29.394 USB, Beacon 29.352 USB
JAS-2 19 May 23:15:44 23:22:27 33° 268° (W) 23:29:22 435.800 - 435.900 CW/SSB, 435.910 FM
OPAL 19 May 23:40:31 23:44:24 21° 266° (W) 23:48:18 ?
KITSAT 1 20 May 00:06:43 00:14:41 69° 118° (ESE) 00:22:44 435.175 FM
RS-15 20 May 01:06:14 01:17:16 55° 42° (NE) 01:27:54 29.354 - 29.394 USB, Beacon 29.352 USB
MaSat-1 20 May 01:25:05 01:29:07 16° 102° (ESE) 01:32:48 437.345 MHz
Oscar 16 20 May 01:56:18 02:00:21 22° 92° (E) 02:04:20 437.025 USB, Beacon 2401.1428
AO-27 20 May 01:58:22 02:01:47 17° 90° (E) 02:05:11 436.795 MHz FM
KITSAT 1 20 May 02:03:19 02:10:41 37° 321° (NW) 02:18:07 435.175 FM
ITAMSAT 1 20 May 02:05:34 02:09:20 20° 91° (E) 02:13:04 435.822 SSB
Uribyol 2 20 May 02:46:31 02:51:34 47° 99° (E) 02:56:35 436.500 FM
Oscar 19 20 May 02:56:02 03:01:12 65° 102° (ESE) 03:06:19 437.125 CW, 437.150 USB
MaSat-1 20 May 03:03:41 03:10:50 82° 116° (ESE) 03:16:40 437.345 MHz
Uosat F 20 May 03:16:01 03:18:17 13° 88° (E) 03:20:31 435.120 FM
RS-15 20 May 03:19:05 03:29:38 53° 247° (WSW) 03:39:58 29.354 - 29.394 USB, Beacon 29.352 USB
AO-Echo 20 May 03:24:13 03:28:32 34° 97° (E) 03:32:53 ?
Oscar 16 20 May 03:34:59 03:40:00 51° 290° (WNW) 03:44:59 437.025 USB, Beacon 2401.1428
AO-27 20 May 03:36:36 03:41:48 67° 288° (WNW) 03:46:58 436.795 MHz FM
ITAMSAT 1 20 May 03:44:05 03:49:14 59° 289° (WNW) 03:54:21 435.822 SSB
Gurwin Techsat 1B 20 May 03:44:24 03:48:24 21° 91° (E) 03:52:23 435.225 FM
KITSAT 1 20 May 04:03:35 04:08:51 18° 349° (N) 04:14:08 435.175 FM

Developed and maintained by Chris Peat, Heavens-Above GmbH. Please read the updated FAQ before sending e-mail. Imprint. DLR
